SL-14 DEB, 45277

Orbit data source: Space-Track

SL-14 DEB, 45277 is space debris in LEO originally from a launch on Thu, 15 Aug 1991 UTC launched from the Plesetsk Missile And Space Complex (PKMTR). Debris objects in space refer to the collection of defunct objects orbiting the Earth. Examples of debris include non-operational satellites, rocket bodies, and fragments generated from explosions, collisions, or faulty payload assembly.

Loading next visibility...
Identifier
45277, 1991-056P
Orbit
LEO
Country
Flag of CISCIS
Related business
Manufacturer
Unknown
Mission
Spacecraft
Bus & Motor
Unknown
Mass
Unknown
Launch date (UTC)
1991-08-15 (34 years ago)
Launch vehicle
Unknown
Launch site
Plesetsk Missile And Space Complex (PKMTR)
Object type
Payload
Rocket body
Debris
Shape & HBR
Unknown shape, 0.1 m
Radar Cross Section
Small (<0.1 m²)

Expand to show TLE details & history
Last TLE update: 8 hours ago

TLE from 8 hours ago
0 SL-14 DEB
1 45277U 91056P   25294.45152808  .00005647  00000-0  10273-1 0  9997
2 45277  82.5501 284.6258 0120415 108.2830 253.1450 13.37783129275118
Epoch: 2025-10-21T10:50Z
TLE epoch observation values (Epoch: 2025-10-21T10:50:12.026Z)
Latitude
0.00002°
Longitude
91.9364°
Altitude
1,147.553 km
Speed
7.266 km/s
True Right ascension
18h 58m 30s
True Declination
0° 00' 00"
Sunlit
Object was in daylight at epoch
Visualization orbit readout
Latitude
Unknown
Longitude
Unknown
Altitude
Unknown
Speed
Unknown
Apparent Right ascension
Unknown
Apparent Declination
Unknown
Sunlit
N/A
Visualization observer readout
Local Sidereal Time
14:11:41
Azimuth
Unknown
Elevation
Unknown
Doppler factor
Unknown
Orbital elements
Apogee altitude
1,204.99 km
Perigee altitude
1,024.538 km
Semi-major axis
7,492.901 km
Eccentricity
0.01204
Inclination
82.5501°
RAAN
284.6258°
Arg. of periapsis
108.283°
True anomaly
251.83028°
Mean anomaly
253.145°
Eccentric anomaly
252.48705°
Mean motion
3.34633 °/min
Orbital period
107.58 mins
BSTAR
0.010273
Loading maneuver chart data...
Computing Atmospheric mass density...
Loading historical data...
Loading historical data...
Loading historical data...
Loading historical data...
Loading historical data...
Loading historical data...
Loading historical data...

Documentation

Showing up to 5 results
|